www.pogodaiklimat.ru

Погода и климат >> Архив погоды >> Россия >> Сахалинская область >> Остров Монерон


ПОГОДА на Остров Монерон

  • Прогноз погоды на Остров Монерон
  • Монитор погоды на Остров Монерон
  • Климат города

АРХИВ ПОГОДЫ на Остров Монерон

Время (UTC), дата Ветер
(напр.,м/с)
 
Видим.   Явления Облачность Т
(С)
Тd
(С)
f
(%)
Тe
(С)
Тes
(С)
Комфортность P
(гПа)
Po
(гПа)
Тmin
(С)
Tmax
(С)
R
(мм)
R24
(мм)
S
(см)
00 14.05 С 2 200 м туман н/о +8.5 +8.1 97 +6 1005.1 992.0 +6.4
03 14.05 С 3 1000 м туман местами 10 баллов +11.7 +10.8 94 +10 +10 1005.0 992.0
06 14.05 С 2 2000 м туман местами 10 баллов +10.9 +9.2 89 +10 +10 1005.0 992.0
09 14.05 штиль 0 200 м туман н/о +8.1 +7.3 95 +7 1006.5 993.3 +12.5
12 14.05 С 2 200 м туман н/о +7.9 +7.5 97 +6 1007.9 994.7
15 14.05 ЮЗ 3 200 м туман н/о +7.3 +6.9 97 +4 1007.9 994.7
18 14.05 ЮЗ 7 200 м туман н/о +6.9 +6.5 97 +2 1007.9 994.7
21 14.05 ЮЗ 9-11
{12}
200 м туман ?/? +6.1 +5.7 97 0 0 1007.2 994.0 +6.0
00 15.05 ЮЗ 8 200 м туман н/о +7.0 +6.7 98 +2 1007.9 994.7
03 15.05 ЮЗ 12 200 м туман н/о +7.3 +6.9 97 +1 1006.5 993.3
06 15.05 ЮЗ 11 200 м туман н/о +7.2 +6.8 97 +1 1005.2 992.0
09 15.05 ЮЗ 6 200 м туман н/о +6.8 +6.4 97 +2 1006.5 993.3 +7.6
12 15.05 ЮЗ 7 200 м туман н/о +7.5 +7.2 98 +3 1006.5 993.3
15 15.05 ЮЗ 4 200 м слабая морось н/о +7.8 +7.5 98 +4 1007.9 994.7
18 15.05 Ю 5 200 м слабая морось н/о +6.8 +6.4 97 +2 1006.5 993.3
21 15.05 Ю 8-9
{11}
50 м туман {морось} ?/? +7.0 +6.6 97 +2 +2 1005.0 991.9 +6.8 0.4
00 16.05 ЮЗ 9 200 м туман н/о +7.5 +7.1 97 +2 1006.5 993.3
03 16.05 Ю 6 200 м слабый ливневой дождь н/о +6.9 +6.6 98 +2 1003.9 990.7
06 16.05 ЮЗ 10 500 м туман н/о +8.8 +8.3 97 +4 1001.1 988.0
09 16.05 ЮЗ 12 500 м туман н/о +8.6 +8.3 98 +3 998.3 985.3 +9.0 3
12 16.05 ЮЗ 10 500 м ливневой дождь н/о +7.4 +7.1 98 +2 997.1 984.0
15 16.05 ЮВ 1 500 м гроза, ливневой дождь н/о +7.3 +6.6 95 +6 998.4 985.3
18 16.05 С 10 500 м слабый ливневой дождь н/о +5.7 +5.3 97 -1 998.5 985.3
21 16.05 С 14-21
{25}
4000 м дымка {ливн. осадки, туман} 9/9 300 м
[St]
+5.5 +2.0 78 -2 -2 997.4 988.2 +5.1 28
00 17.05 С 13 4000 м дымка 5 баллов +7.0 +4.1 82 +1 +1 1005.2 992.0
03 17.05 С 12 20 км 7 баллов +7.4 +4.2 80 +2 +2 1007.9 994.7
06 17.05 С 11 20 км 10 баллов +7.4 +3.4 76 +2 +2 1010.6 997.3
09 17.05 С 11 20 км ясно +6.7 +2.2 73 +1 +1 1010.6 997.3 +7.8
12 17.05 С 10 20 км 2 балла +9.4 -1.6 46 +5 +5 1013.2 1000.0
15 17.05 С 2-3
{13}
20 км ясно +5.8 +1.2 72 +4 +4 1015.0 1001.6
18 17.05 С 6 20 км 2 балла +4.9 +2.9 87 -0 -0 1016.2 1002.7
21 17.05 С 3-4
{8}
20 км 10/0
[Ac trans Cs]
+5.9 +3.7 86 +3 +4 1015.6 1002.3 +4.7
00 18.05 Ю 1 50 км 10 баллов +8.2 +3.5 72 +8 +8 1016.0 1002.7
03 18.05 штиль 0
{4}
50 км 10/0
[As trans]
+7.4 +2.9 73 +7 +16 опасность
простуды
1015.1 1001.8
06 18.05 Ю 4 50 км 10 баллов +7.0 +1.3 67 +4 +4 1014.6 1001.3
09 18.05 Ю 2 50 км 10 баллов +6.0 +0.7 69 +4 +4 1016.1 1002.7 +8.8
12 18.05 Ю 3 20 км 7 баллов +5.4 +0.6 71 +2 +2 1016.1 1002.7
15 18.05 ЮЗ 1 20 км 2 балла +5.3 +0.1 69 +4 +4 1014.7 1001.3
18 18.05 ЮЗ 2 20 км 6 баллов +5.4 -1.3 62 +3 +3 1014.7 1001.3
21 18.05 Ю 4-9
{9}
20 км 8/0
[Ac trans Ci fib]
+7.8 -3.9 43 +5 +6 1014.3 1001.0 +4.8
00 19.05 ЮЗ 4 50 км 10 баллов +9.6 -0.0 51 +7 +7 1015.9 1002.7
03 19.05 ЮЗ 4 50 км 10 баллов +9.2 +2.7 64 +7 +7 1016.0 1002.7
06 19.05 ЮЗ 3 50 км 9 баллов +10.2 +3.7 64 +8 +9 1015.9 1002.7
09 19.05 С 3 20 км 9 баллов +8.9 +2.5 64 +7 +7 1017.3 1004.0 +11.6
12 19.05 штиль 0 20 км 2 балла +8.1 +1.7 64 +8 +8 1017.3 1004.0
15 19.05 С 4 20 км 2 балла +8.2 +3.1 70 +5 +5 1018.6 1005.3
18 19.05 Ю 2 20 км 1 балл +9.3 -1.7 46 +8 +8 1018.6 1005.3
21 19.05 С 8-11
{11}
50 км 1/0
[Ac cast]
+7.7 +4.1 78 +3 +3 1017.9 1004.6 +6.2
00 20.05 С 6 20 км ясно +9.0 +4.8 75 +5 +10 1020.0 1006.7
03 20.05 СВ 1-5
{12}
20 км ясно +8.7 +4.7 76 +8 +29 опасность
простуды
1019.1 1005.8
06 20.05 Ю 4 20 км ясно +8.8 +2.1 63 +6 +13 1020.0 1006.7
09 20.05 ЮЗ 3 20 км 10 баллов +7.6 -1.4 53 +5 +5 1020.1 1006.7 +10.6
12 20.05 ЮЗ 4 20 км 4 балла +7.6 -0.9 55 +5 +5 1020.1 1006.7
15 20.05 ЮЗ 3 20 км 9 баллов +6.4 +0.7 67 +4 +4 1018.7 1005.3
18 20.05 Ю 2 20 км 9 баллов +6.0 +3.3 83 +4 +4 1018.7 1005.3

 

Местоположение метеостанции Остров Монерон (Сахалинская область, Россия): широта 46.25 долгота 141.20 высота над уровнем моря 109 м.

В архиве по умолчанию представлена погода на Остров Монерон за последнюю неделю. Архивные данные за месяц целиком и за предыдущие месяцы, начиная с января 2011 года, Вы можете получить, выбрав интересующий диапазон дат из раскрывающегося списка и нажав кнопку "Ввод!".


*Определитесь, кто Вы:
робот инопланетянин человек

Внимание! Время в таблицах - всемирное. Для получения местного времени необходимо прибавить поправку, которая на Остров Монерон равна 11 ч.

Смотрите также архив погоды в соседних городах и на ближайших метеорологических станциях:

Погода в Невельске (Сахалинская область, Россия) (66 км)
Погода на Мысе Крильон (Сахалинская область, Россия) (73 км)
Погода в Wakkanai (Япония) (100 км)
Погода в Холмске (Сахалинская область, Россия) (108 км)
Погода в Огоньках (Сахалинская область, Россия) (109 км)
Погода в Корсакове (Сахалинская область, Россия) (123 км)
Погода в Южно-Сахалинске (Сахалинская область, Россия) (139 км)
Погода в Новиково (Сахалинская область, Россия) (162 км)
Погода в Долинске (Сахалинская область, Россия) (171 км)
Погода в Мальково (Сахалинская область, Россия) (171 км)

Пояснения к столбцам:

Ветер - указаны скорость ветра в м/с - средняя за 10 мин, порывы в срок и между сроками (в фигурных скобках) и направление, откуда дует ветер: С - северный, СВ - северо-восточный, В - восточный, ЮВ - юго-восточный, Ю - южный, ЮЗ - юго-западный, З - западный, СЗ - северо-западный.
Видимость - горизонтальная дальность видимости в метрах или километрах. При видимости от 1 до 10 км при отсутствии осадков обычно наблюдается дымка, при ухудшении видимости до 1 км и менее - туман. В сухую погоду видимость может ухудшаться дымом, пылью или мглою.
Явления - указаны атмосферные явления, наблюдавшиеся в срок или в последний час перед сроком; фигурными скобками обозначены явления, наблюдавшиеся между сроками (за 1-3 часа до срока); квадратными скобками обозначены град или гололедные отложения с указанием их диаметра в мм.
Облачность - указаны через наклонную черту общая и нижняя облачность в баллах и высота нижней границы облаков в метрах; квадратными скобками обозначены формы облаков: Ci - перистые, Cs - перисто-слоистые, Cc - перисто-кучевые, Ac - высококучевые, As - высокослоистые, Sc - слоисто-кучевые, Ns - слоисто-дождевые, Cu - кучевые, Cb - кучево-дождевые. Подробнее классификацию облаков см. в Атласе облаков (PDF).
T - Температура воздуха - температура, измеренная на высоте 2 м над землей.
Td - Температура точки росы - температура, при понижении до которой содержащийся в воздухе водяной пар достигнет насыщения.
f - Относительная влажность воздуха - влажноcть воздуха, измеренная на высоте 2 м над землей.
Te - Эффективная температура - температура, которую ощущает одетый по сезону человек в тени. Характеристика душности погоды. При расчете учитывается влияние влажности воздуха и скорости ветра на теплоощущения человека.
Tes - Эффективная температура на солнце - температура, которую ощущает человек, с поправкой на солнечный нагрев. Характеристика знойности погоды. Зависит от высоты солнца над горизонтом, облачности и скорости ветра. Ночью, в пасмурную погоду, а также при ветре 12 м/с и более поправка равна нулю.
P - Атмосферное давление - приведенное к уровню моря атмосферное давление.
Po - Атмосферное давление - измеренное на уровне метеостанции атмосферное давление.
Tmin - Минимальная температура - минимум температуры воздуха на высоте 2 м над землей.
Tmax - Максимальная температура - максимум температуры воздуха на высоте 2 м над землей.
R - Количество осадков - Количество выпавших осадков за период времени, мм. При наведении курсора мыши на число - период времени, за который выпало указанное количество осадков.
R24 - Количество осадков - Количество выпавших осадков за 24 часа, мм.
S - Снежный покров - Высота снежного покрова, см. При наведении курсора мыши на число - состояние снежного покрова и степень покрытия местности в баллах.